Home   Weather   Delta   Past weeks

Flag for Canada Past Weather in Delta, British Columbia, Canada — Yesterday and Last 2 Weeks

50 °F

Passing clouds.

Feels Like: 47 °F
Forecast: 44 / 51 °F
Wind: 8 mph from East

Location: Vancouver International Airport

Current Time: Oct 21, 2016 at 6:16:14 AM

Latest Report: Oct 21, 2016 at 5:00 AM

Visibility: 12 mi

Pressure: 30.03 "Hg

Humidity: 94%

Dew Point: 48 °F

Location of DeltaLocation

Past Weather in Delta — Graph


Delta Temperature Yesterday

Maximum temperature yesterday: 59 °F (at 2:00 PM)
Minimum temperature yesterday: 48 °F (at 10:00 PM)
Average temperature yesterday: 53 °F

High & Low Weather Summary for the Past Weeks

High61 °F (Oct 7, 4:00 PM)100% (Oct 8, 3:00 PM)30.30 "Hg (Oct 8, 3:00 PM)
Low36 °F (Oct 11, 4:00 AM)47% (Oct 11, 1:00 PM)29.00 "Hg (Oct 15, 6:00 PM)
Average51 °F85%29.81 "Hg
* Reported Oct 6 5:00 AM — Oct 21 5:00 AM, Delta, Weather by CustomWeather, © 2016

Note: Actual official high and low records may vary slightly from our data, if they occured in-between our weather recording intervals... More about our weather records


Delta Weather History for the Previous 24 Hours

Scroll right to see more
Time TempWeatherWind HumidityBarometerVisibility
5:00 AM
Fri, Oct 21
50 °FPassing clouds.8 mph94%30.03 "Hg12 mi
4:00 AM50 °FPassing clouds.8 mph94%30.04 "Hg12 mi
3:00 AM48 °FPartly cloudy.8 mph94%30.06 "Hg20 mi
2:00 AM46 °FPartly cloudy.7 mph93%30.07 "Hg20 mi
1:00 AM46 °FPartly cloudy.10 mph100%30.08 "Hg20 mi
12:00 AM48 °FPassing clouds.9 mph94%30.08 "Hg20 mi
11:00 PM
Thu, Oct 20
50 °FPassing clouds.9 mph94%30.08 "Hg20 mi
10:00 PM48 °FPartly cloudy.9 mph94%30.08 "Hg20 mi
9:00 PM50 °FPassing clouds.8 mph88%30.07 "Hg20 mi
8:00 PM54 °FPassing clouds.5 mph82%30.06 "Hg20 mi
7:00 PM54 °FPassing clouds.7 mph77%30.04 "Hg30 mi
6:00 PM55 °FPassing clouds.10 mph77%30.03 "Hg30 mi
5:00 PM57 °FScattered clouds.8 mph77%30.03 "Hg30 mi
4:00 PM57 °FScattered clouds.7 mph77%30.02 "Hg20 mi
3:00 PM59 °FScattered clouds.5 mph77%30.01 "Hg20 mi
2:48 PM59 °FBroken clouds.5 mph77%30.01 "Hg15 mi
2:00 PM59 °FCloudy.5 mph72%30.00 "Hg15 mi
1:00 PM57 °FCloudy.8 mph88%29.98 "Hg15 mi
12:00 PM57 °FBroken clouds.12 mph88%29.97 "Hg15 mi
11:00 AM55 °FCloudy.9 mph88%29.94 "Hg15 mi
10:00 AM54 °FMostly cloudy.10 mph94%29.94 "Hg15 mi
9:00 AM52 °FMore clouds than sun.8 mph94%29.93 "Hg15 mi
8:00 AM50 °FMostly cloudy.9 mph100%29.93 "Hg15 mi
7:00 AM52 °FLow clouds.12 mph88%29.92 "Hg15 mi
6:00 AM50 °FOvercast.13 mph94%29.93 "Hg15 mi
Weather by CustomWeather, © 2016

See weather overviewHow to use our weather pages